,,Stat5,,Stat1,,Stat2,,Stat3,,Stat4,,Wind1,,Wind1,
time,status,PA1M_AVG,status,PR1M_SUM,status,RH1M_AVG,status,SR1M_AVG,status,TA1M_AVG,status,W1dAve1m,status,W1sAve1m,
2002-10-24, 00:00:00,VALID,918.424,VALID,0,VALID,95.8993,VALID,-0.0849042,VALID,20.4499,VALID,209,VALID,0,
2002-10-24, 00:01:00,VALID,918.409,VALID,0,VALID,95.9845,VALID,-0.0339617,VALID,20.4429,VALID,209,VALID,0.0497768,
2002-10-24, 00:02:00,VALID,918.398,VALID,0,VALID,96.1346,VALID,-0.0509425,VALID,20.4526,VALID,335,VALID,0.57134,
2002-10-24, 00:03:00,VALID,918.384,VALID,0,VALID,96.2274,VALID,-0.0169808,VALID,20.4591,VALID,4,VALID,0.632143,
2002-10-24, 00:04:00,VALID,918.375,VALID,0,VALID,96.3037,VALID,-0.0169808,VALID,20.4548,VALID,19,VALID,0.847957,
2002-10-24, 00:05:00,VALID,918.373,VALID,0,VALID,96.4677,VALID,0,VALID,20.4841,VALID,22,VALID,0.784288,
2002-10-24, 00:06:00,VALID,917.954,VALID,0,VALID,96.5911,VALID,0,VALID,20.4799,VALID,19,VALID,0.59395,
2002-10-24, 00:07:00,VALID,918.37,VALID,0,VALID,96.6572,VALID,0,VALID,20.51,VALID,16,VALID,0.558799,
2002-10-24, 00:08:00,VALID,918.364,VALID,0,VALID,96.7424,VALID,0,VALID,20.5358,VALID,17,VALID,0.149493,
2002-10-24, 00:09:00,VALID,918.356,VALID,0,VALID,96.8212,VALID,0,VALID,20.542,VALID,17,VALID,0.0332031,
2002-10-24, 00:10:00,VALID,918.359,VALID,0,VALID,96.8657,VALID,0,VALID,20.5512,VALID,17,VALID,0,
2002-10-24, 00:11:00,VALID,918.361,VALID,0,VALID,96.7704,VALID,0.0169808,VALID,20.5587,VALID,17,VALID,0.062717,
2002-10-24, 00:12:00,VALID,918.351,VALID,0,VALID,96.7945,VALID,0.0339617,VALID,20.5517,VALID,17,VALID,0,
2002-10-24, 00:13:00,VALID,918.345,VALID,0,VALID,96.7691,VALID,0.0509425,VALID,20.5348,VALID,17,VALID,0,
2002-10-24, 00:14:00,VALID,918.334,VALID,0,VALID,96.6915,VALID,0,VALID,20.5256,VALID,17,VALID,0.00117188,
2002-10-24, 00:15:00,VALID,918.332,VALID,0,VALID,96.6547,VALID,0,VALID,20.5033,VALID,17,VALID,0,
2002-10-24, 00:16:00,VALID,918.313,VALID,0,VALID,96.6776,VALID,0,VALID,20.4898,VALID,17,VALID,0,
2002-10-24, 00:17:00,VALID,918.311,VALID,0,VALID,96.6305,VALID,0.0509425,VALID,20.4575,VALID,17,VALID,0,
2002-10-24, 00:18:00,VALID,918.286,VALID,0,VALID,96.5847,VALID,0,VALID,20.4255,VALID,324,VALID,0.220353,
2002-10-24, 00:19:00,VALID,918.28,VALID,0,VALID,96.6254,VALID,0,VALID,20.3803,VALID,266,VALID,0.192845,
2002-10-24, 00:20:00,VALID,918.263,VALID,0,VALID,96.806,VALID,-0.0169808,VALID,20.3837,VALID,277,VALID,0.264623,
2002-10-24, 00:21:00,VALID,918.23,VALID,0,VALID,96.8479,VALID,0,VALID,20.3679,VALID,249,VALID,0.130551,
2002-10-24, 00:22:00,VALID,918.231,VALID,0,VALID,96.9904,VALID,0.0169808,VALID,20.3482,VALID,320,VALID,0.236275,
2002-10-24, 00:23:00,VALID,918.233,VALID,0,VALID,97.1582,VALID,0,VALID,20.3644,VALID,17,VALID,0.420312,
2002-10-24, 00:24:00,VALID,918.251,VALID,0,VALID,97.1976,VALID,0,VALID,20.3708,VALID,12,VALID,0.0205357,
2002-10-24, 00:25:00,VALID,918.245,VALID,0,VALID,97.2625,VALID,0,VALID,20.3644,VALID,12,VALID,0.0835503,
2002-10-24, 00:26:00,VALID,918.26,VALID,0,VALID,97.3261,VALID,0.0169808,VALID,20.381,VALID,12,VALID,0.125601,
2002-10-24, 00:27:00,VALID,918.266,VALID,0,VALID,97.3413,VALID,0,VALID,20.3773,VALID,13,VALID,0.181027,
2002-10-24, 00:28:00,VALID,918.263,VALID,0,VALID,97.438,VALID,0,VALID,20.3803,VALID,12,VALID,0.117773,
2002-10-24, 00:29:00,VALID,918.255,VALID,0,VALID,97.4036,VALID,0.0339617,VALID,20.3872,VALID,20,VALID,0.544764,
2002-10-24, 00:30:00,VALID,918.223,VALID,0,VALID,97.4075,VALID,0.0169808,VALID,20.3708,VALID,29,VALID,0.14597,
2002-10-24, 00:31:00,VALID,918.213,VALID,0,VALID,97.3528,VALID,0,VALID,20.3644,VALID,29,VALID,0.0414299,
2002-10-24, 00:32:00,VALID,918.204,VALID,0,VALID,97.2841,VALID,0.0339617,VALID,20.345,VALID,29,VALID,0.139623,
2002-10-24, 00:33:00,VALID,918.197,VALID,0,VALID,97.3032,VALID,0,VALID,20.3326,VALID,29,VALID,0.266036,
2002-10-24, 00:34:00,VALID,918.194,VALID,0,VALID,97.4392,VALID,0,VALID,20.3514,VALID,29,VALID,0.389022,
2002-10-24, 00:35:00,VALID,918.182,VALID,0,VALID,97.3757,VALID,0.0169808,VALID,20.3485,VALID,26,VALID,0.381373,
2002-10-24, 00:36:00,VALID,918.18,VALID,0,VALID,97.321,VALID,0.0169808,VALID,20.335,VALID,17,VALID,0.579392,
2002-10-24, 00:37:00,VALID,918.163,VALID,0,VALID,97.2943,VALID,0.0169808,VALID,20.3256,VALID,16,VALID,0.356445,
2002-10-24, 00:38:00,VALID,918.149,VALID,0,VALID,97.3235,VALID,0.0169808,VALID,20.3194,VALID,16,VALID,0.181027,
2002-10-24, 00:39:00,VALID,918.123,VALID,0,VALID,97.3235,VALID,0,VALID,20.3221,VALID,15,VALID,0.495443,
2002-10-24, 00:40:00,VALID,918.116,VALID,0,VALID,97.3375,VALID,0.0169808,VALID,20.3027,VALID,26,VALID,0.830729,
2002-10-24, 00:41:00,VALID,918.098,VALID,0,VALID,97.2917,VALID,0.0169808,VALID,20.3065,VALID,21,VALID,1.05893,
2002-10-24, 00:42:00,VALID,918.086,VALID,0,VALID,97.1798,VALID,0,VALID,20.297,VALID,29,VALID,0.861914,
2002-10-24, 00:43:00,VALID,918.068,VALID,0,VALID,97.0578,VALID,0.0169808,VALID,20.258,VALID,22,VALID,0.907939,
2002-10-24, 00:44:00,VALID,918.061,VALID,0,VALID,97.0285,VALID,0,VALID,20.2419,VALID,26,VALID,0.810238,
2002-10-24, 00:45:00,VALID,918.05,VALID,0,VALID,97.0489,VALID,0.0169808,VALID,20.2454,VALID,18,VALID,0.945313,
2002-10-24, 00:46:00,VALID,918.053,VALID,0,VALID,96.9955,VALID,0.0169808,VALID,20.2322,VALID,26,VALID,0.913862,
2002-10-24, 00:47:00,VALID,918.05,VALID,0,VALID,97.0196,VALID,0.0169808,VALID,20.2357,VALID,19,VALID,0.920436,
2002-10-24, 00:48:00,VALID,918.041,VALID,0,VALID,96.923,VALID,0.0169808,VALID,20.2098,VALID,22,VALID,0.840946,
2002-10-24, 00:49:00,VALID,918.02,VALID,0,VALID,96.9014,VALID,-0.0849042,VALID,20.2111,VALID,22,VALID,0.5956,
2002-10-24, 00:50:00,VALID,918.003,VALID,0,VALID,96.9192,VALID,-0.0849042,VALID,20.2079,VALID,22,VALID,0.575169,
2002-10-24, 00:51:00,VALID,918.009,VALID,0,VALID,96.7729,VALID,-0.101885,VALID,20.188,VALID,16,VALID,0.785352,
2002-10-24, 00:52:00,VALID,917.986,VALID,0,VALID,96.8352,VALID,-0.0849042,VALID,20.1887,VALID,10,VALID,0.574554,
2002-10-24, 00:53:00,VALID,917.976,VALID,0,VALID,96.8937,VALID,-0.0849042,VALID,20.1882,VALID,26,VALID,0.508898,
2002-10-24, 00:54:00,VALID,917.964,VALID,0,VALID,96.9624,VALID,-0.0679233,VALID,20.2111,VALID,19,VALID,0.302284,
2002-10-24, 00:55:00,VALID,917.949,VALID,0,VALID,96.9103,VALID,-0.0849042,VALID,20.2051,VALID,20,VALID,0.325,
2002-10-24, 00:56:00,VALID,917.941,VALID,0,VALID,96.9535,VALID,-0.0679233,VALID,20.2108,VALID,18,VALID,0.482031,
2002-10-24, 00:57:00,VALID,917.928,VALID,0,VALID,96.8772,VALID,-0.101885,VALID,20.2113,VALID,19,VALID,0.30701,
2002-10-24, 00:58:00,VALID,917.913,VALID,0,VALID,96.8874,VALID,-0.0849042,VALID,20.2084,VALID,24,VALID,0.481702,
2002-10-24, 00:59:00,VALID,917.905,VALID,0,VALID,96.8123,VALID,-0.101885,VALID,20.1947,VALID,36,VALID,0.41643,
2002-10-24, 01:00:00,VALID,917.899,VALID,0,VALID,96.7399,VALID,-0.0849042,VALID,20.179,VALID,13,VALID,0.728766,
2002-10-24, 01:01:00,VALID,917.911,VALID,0,VALID,96.6572,VALID,-0.101885,VALID,20.1659,VALID,13,VALID,0.752262,
2002-10-24, 01:02:00,VALID,917.926,VALID,0,VALID,96.703,VALID,-0.101885,VALID,20.1532,VALID,26,VALID,0.527444,
2002-10-24, 01:03:00,VALID,917.917,VALID,0,VALID,96.7996,VALID,-0.101885,VALID,20.1664,VALID,23,VALID,0.495477,
2002-10-24, 01:04:00,VALID,917.919,VALID,0,VALID,96.7844,VALID,0,VALID,20.1614,VALID,22,VALID,0.527238,
2002-10-24, 01:05:00,VALID,917.912,VALID,0,VALID,96.7996,VALID,0,VALID,20.1611,VALID,23,VALID,0.794727,
2002-10-24, 01:06:00,VALID,917.883,VALID,0,VALID,96.8073,VALID,0,VALID,20.1584,VALID,345,VALID,0.78817,
2002-10-24, 01:07:00,VALID,917.874,VALID,0,VALID,96.305,VALID,0,VALID,20.1059,VALID,2,VALID,1.90712,
2002-10-24, 01:08:00,VALID,917.854,VALID,0,VALID,95.6425,VALID,0,VALID,20.0255,VALID,290,VALID,0.558694,
2002-10-24, 01:09:00,VALID,917.861,VALID,0,VALID,95.7493,VALID,0,VALID,20.0163,VALID,352,VALID,0.374107,
2002-10-24, 01:10:00,VALID,917.861,VALID,0,VALID,95.9515,VALID,0.0169808,VALID,20.0386,VALID,22,VALID,0.15293,
2002-10-24, 01:11:00,VALID,917.839,VALID,0,VALID,95.9502,VALID,0,VALID,20.0645,VALID,23,VALID,0.572846,
2002-10-24, 01:12:00,VALID,917.823,VALID,0,VALID,95.9655,VALID,-0.0169808,VALID,20.0809,VALID,8,VALID,1.02858,
2002-10-24, 01:13:00,VALID,917.832,VALID,0,VALID,95.982,VALID,0,VALID,20.0841,VALID,357,VALID,0.30161,
2002-10-24, 01:14:00,VALID,917.813,VALID,0,VALID,96.0239,VALID,0,VALID,20.0806,VALID,19,VALID,0.61238,
2002-10-24, 01:15:00,VALID,917.808,VALID,0,VALID,95.9591,VALID,0,VALID,20.0766,VALID,34,VALID,0.619655,
2002-10-24, 01:16:00,VALID,917.796,VALID,0,VALID,96.0189,VALID,0.0169808,VALID,20.0935,VALID,21,VALID,0.61859,
2002-10-24, 01:17:00,VALID,917.809,VALID,0,VALID,95.9553,VALID,0.0169808,VALID,20.1,VALID,24,VALID,0.76727,
2002-10-24, 01:18:00,VALID,917.815,VALID,0,VALID,95.982,VALID,0,VALID,20.1062,VALID,35,VALID,0.349662,
2002-10-24, 01:19:00,VALID,917.813,VALID,0,VALID,95.9896,VALID,0,VALID,20.1226,VALID,30,VALID,0.445703,
2002-10-24, 01:20:00,VALID,917.808,VALID,0,VALID,95.8968,VALID,0.0169808,VALID,20.1229,VALID,8,VALID,0.564286,
2002-10-24, 01:21:00,VALID,917.792,VALID,0,VALID,95.9108,VALID,0,VALID,20.1224,VALID,11,VALID,0.355686,
2002-10-24, 01:22:00,VALID,917.798,VALID,0,VALID,95.7493,VALID,0,VALID,20.1226,VALID,12,VALID,0.104167,
2002-10-24, 01:23:00,VALID,917.778,VALID,0,VALID,95.5,VALID,0.0169808,VALID,20.0903,VALID,12,VALID,0,
2002-10-24, 01:24:00,VALID,917.744,VALID,0,VALID,95.4644,VALID,0.0169808,VALID,20.0642,VALID,10,VALID,0.163867,
2002-10-24, 01:25:00,VALID,917.736,VALID,0,VALID,95.2979,VALID,0,VALID,20.0486,VALID,354,VALID,0.771748,
2002-10-24, 01:26:00,VALID,917.724,VALID,0,VALID,95.2406,VALID,0.0169808,VALID,20.0195,VALID,5,VALID,1.15275,
2002-10-24, 01:27:00,VALID,917.699,VALID,0,VALID,95.3271,VALID,0.0169808,VALID,20.0098,VALID,11,VALID,1.0483,
2002-10-24, 01:28:00,VALID,917.675,VALID,0,VALID,95.5395,VALID,0,VALID,20.016,VALID,8,VALID,0.654247,
2002-10-24, 01:29:00,VALID,917.653,VALID,0,VALID,95.6208,VALID,0.0169808,VALID,20.0028,VALID,5,VALID,0.288651,
2002-10-24, 01:30:00,VALID,917.637,VALID,0,VALID,95.6717,VALID,0.0169808,VALID,20.0026,VALID,28,VALID,0.264022,
2002-10-24, 01:31:00,VALID,917.615,VALID,0,VALID,95.4988,VALID,0.0339617,VALID,19.9899,VALID,32,VALID,0.388775,
2002-10-24, 01:32:00,VALID,917.57,VALID,0,VALID,95.4988,VALID,0,VALID,19.9937,VALID,31,VALID,0.484375,
2002-10-24, 01:33:00,VALID,917.576,VALID,0,VALID,95.5306,VALID,0,VALID,19.9902,VALID,26,VALID,0.423438,
2002-10-24, 01:34:00,VALID,917.565,VALID,0,VALID,95.6183,VALID,0,VALID,19.9902,VALID,26,VALID,0.170312,
2002-10-24, 01:35:00,VALID,917.545,VALID,0,VALID,95.6476,VALID,0,VALID,20.0103,VALID,26,VALID,0.33941,
2002-10-24, 01:36:00,VALID,917.542,VALID,0,VALID,95.6819,VALID,0.0169808,VALID,20.0071,VALID,26,VALID,0.33734,
2002-10-24, 01:37:00,VALID,917.535,VALID,0,VALID,95.7086,VALID,0.0169808,VALID,20.0001,VALID,26,VALID,0.241741,
2002-10-24, 01:38:00,VALID,917.531,VALID,0,VALID,95.7963,VALID,0,VALID,20.0128,VALID,26,VALID,0.214844,
2002-10-24, 01:39:00,VALID,917.51,VALID,0,VALID,95.8561,VALID,0,VALID,20.0262,VALID,26,VALID,0.131757,
2002-10-24, 01:40:00,VALID,917.502,VALID,0,VALID,95.8675,VALID,0,VALID,20.0354,VALID,26,VALID,0.0544819,
2002-10-24, 01:41:00,VALID,917.477,VALID,0,VALID,95.8866,VALID,0.0169808,VALID,20.0446,VALID,26,VALID,0.26089,
2002-10-24, 01:42:00,VALID,917.467,VALID,0,VALID,95.8014,VALID,0,VALID,20.0483,VALID,26,VALID,0.388021,
2002-10-24, 01:43:00,VALID,917.44,VALID,0,VALID,95.7823,VALID,0,VALID,20.0384,VALID,26,VALID,0.472451,
2002-10-24, 01:44:00,VALID,917.421,VALID,0,VALID,95.809,VALID,0,VALID,20.0456,VALID,26,VALID,0.41847,
2002-10-24, 01:45:00,VALID,917.415,VALID,0,VALID,95.7188,VALID,0,VALID,20.0483,VALID,26,VALID,0.566201,
2002-10-24, 01:46:00,VALID,917.401,VALID,0,VALID,95.6565,VALID,0,VALID,20.0451,VALID,24,VALID,0.706926,
2002-10-24, 01:47:00,VALID,917.387,VALID,0,VALID,95.5687,VALID,0,VALID,20.0354,VALID,23,VALID,0.536328,
2002-10-24, 01:48:00,VALID,917.397,VALID,0,VALID,95.603,VALID,0.0169808,VALID,20.0319,VALID,25,VALID,0.460491,
2002-10-24, 01:49:00,VALID,917.386,VALID,0,VALID,95.4632,VALID,0,VALID,20.0391,VALID,22,VALID,0.671441,
2002-10-24, 01:50:00,VALID,917.37,VALID,0,VALID,95.3602,VALID,-0.0169808,VALID,20.0163,VALID,3,VALID,0.586939,
2002-10-24, 01:51:00,VALID,917.356,VALID,0,VALID,95.392,VALID,0,VALID,20.0061,VALID,6,VALID,0.477232,
2002-10-24, 01:52:00,VALID,917.337,VALID,0,VALID,95.2635,VALID,0,VALID,19.9874,VALID,6,VALID,0.604688,
2002-10-24, 01:53:00,VALID,917.314,VALID,0,VALID,95.364,VALID,0,VALID,19.9546,VALID,7,VALID,0.459459,
2002-10-24, 01:54:00,VALID,917.306,VALID,0,VALID,95.5217,VALID,0,VALID,19.9676,VALID,10,VALID,0.787829,
2002-10-24, 01:55:00,VALID,917.271,VALID,0,VALID,95.5026,VALID,0.0169808,VALID,19.9614,VALID,17,VALID,0.835701,
2002-10-24, 01:56:00,VALID,917.259,VALID,0,VALID,95.4314,VALID,0.0339617,VALID,19.9452,VALID,21,VALID,0.729367,
2002-10-24, 01:57:00,VALID,917.238,VALID,0,VALID,95.425,VALID,0,VALID,19.9228,VALID,16,VALID,0.562294,
2002-10-24, 01:58:00,VALID,917.223,VALID,0,VALID,95.5763,VALID,0.0339617,VALID,19.9159,VALID,20,VALID,0.76903,
2002-10-24, 01:59:00,VALID,917.205,VALID,0,VALID,95.5178,VALID,0,VALID,19.9127,VALID,2,VALID,0.726357,
2002-10-24, 02:00:00,VALID,917.223,VALID,0,VALID,95.4072,VALID,0,VALID,19.8866,VALID,2,VALID,0.487965,
2002-10-24, 02:01:00,VALID,917.214,VALID,0,VALID,95.5433,VALID,0.0169808,VALID,19.8699,VALID,4,VALID,0.332422,
2002-10-24, 02:02:00,VALID,917.218,VALID,0,VALID,95.4911,VALID,0.0339617,VALID,19.8771,VALID,14,VALID,0.51183,
2002-10-24, 02:03:00,VALID,917.223,VALID,0,VALID,95.4454,VALID,0,VALID,19.8645,VALID,14,VALID,0.38303,
2002-10-24, 02:04:00,VALID,917.24,VALID,0,VALID,95.3513,VALID,0,VALID,19.8582,VALID,17,VALID,0.566707,
2002-10-24, 02:05:00,VALID,917.245,VALID,0,VALID,95.323,VALID,0,VALID,19.8453,VALID,17,VALID,0.635485,
2002-10-24, 02:06:00,VALID,917.245,VALID,0,VALID,95.3589,VALID,0,VALID,19.8582,VALID,16,VALID,0.579883,
2002-10-24, 02:07:00,VALID,917.245,VALID,0,VALID,95.2775,VALID,0,VALID,19.855,VALID,14,VALID,0.830448,
2002-10-24, 02:08:00,VALID,917.224,VALID,0,VALID,95.1936,VALID,0.0339617,VALID,19.8319,VALID,24,VALID,0.724918,
2002-10-24, 02:09:00,VALID,917.211,VALID,0,VALID,95.1796,VALID,0,VALID,19.8287,VALID,18,VALID,0.642519,
2002-10-24, 02:10:00,VALID,917.182,VALID,0,VALID,95.2063,VALID,0.0339617,VALID,19.8319,VALID,9,VALID,0.643229,
2002-10-24, 02:11:00,VALID,917.168,VALID,0,VALID,95.2127,VALID,0.0339617,VALID,19.8384,VALID,23,VALID,0.425576,
2002-10-24, 02:12:00,VALID,917.14,VALID,0,VALID,95.2063,VALID,0.0169808,VALID,19.8284,VALID,13,VALID,0.385016,
2002-10-24, 02:13:00,VALID,917.106,VALID,0,VALID,95.1656,VALID,0,VALID,19.8217,VALID,6,VALID,0.370888,
2002-10-24, 02:14:00,VALID,917.095,VALID,0,VALID,94.9418,VALID,0.0169808,VALID,19.7999,VALID,343,VALID,0.520059,
2002-10-24, 02:15:00,VALID,917.066,VALID,0,VALID,95.0321,VALID,0.0339617,VALID,19.7832,VALID,360,VALID,0.30957,
2002-10-24, 02:16:00,VALID,917.049,VALID,0,VALID,95.0423,VALID,0.0509425,VALID,19.7994,VALID,4,VALID,0.56317,
2002-10-24, 02:17:00,VALID,917.019,VALID,0,VALID,94.6557,VALID,0,VALID,19.7738,VALID,360,VALID,0.927734,
2002-10-24, 02:18:00,VALID,917.022,VALID,0,VALID,94.4815,VALID,0,VALID,19.7544,VALID,18,VALID,0.457332,
2002-10-24, 02:19:00,VALID,917.005,VALID,0,VALID,94.4828,VALID,-0.0509425,VALID,19.7591,VALID,350,VALID,0.241295,
2002-10-24, 02:20:00,VALID,916.994,VALID,0,VALID,94.5273,VALID,-0.101885,VALID,19.7589,VALID,343,VALID,0,
2002-10-24, 02:21:00,VALID,916.99,VALID,0,VALID,94.5285,VALID,-0.101885,VALID,19.7787,VALID,343,VALID,0.0272382,
2002-10-24, 02:22:00,VALID,916.973,VALID,0,VALID,94.5972,VALID,-0.0679233,VALID,19.7817,VALID,343,VALID,0.0113076,
2002-10-24, 02:23:00,VALID,916.956,VALID,0,VALID,94.6379,VALID,-0.101885,VALID,19.7922,VALID,343,VALID,0,
2002-10-24, 02:24:00,VALID,916.945,VALID,0,VALID,94.6811,VALID,-0.0849042,VALID,19.7882,VALID,343,VALID,0,
2002-10-24, 02:25:00,VALID,916.948,VALID,0,VALID,94.7129,VALID,-0.0849042,VALID,19.7984,VALID,343,VALID,0,
2002-10-24, 02:26:00,VALID,916.915,VALID,0,VALID,94.8057,VALID,-0.0849042,VALID,19.7884,VALID,343,VALID,0,
2002-10-24, 02:27:00,VALID,916.895,VALID,0,VALID,94.9088,VALID,-0.0849042,VALID,19.7946,VALID,357,VALID,0.393503,
2002-10-24, 02:28:00,VALID,916.904,VALID,0,VALID,94.9164,VALID,-0.101885,VALID,19.7951,VALID,2,VALID,0.298564,
2002-10-24, 02:29:00,VALID,916.883,VALID,0,VALID,94.9418,VALID,-0.101885,VALID,19.7723,VALID,2,VALID,0.215039,
2002-10-24, 02:30:00,VALID,916.89,VALID,0,VALID,94.9444,VALID,-0.0849042,VALID,19.7663,VALID,2,VALID,0.166964,
2002-10-24, 02:31:00,VALID,916.896,VALID,0,VALID,95.088,VALID,-0.101885,VALID,19.7531,VALID,2,VALID,0.0295139,
2002-10-24, 02:32:00,VALID,916.885,VALID,0,VALID,95.0028,VALID,-0.0849042,VALID,19.7241,VALID,348,VALID,0.422877,
2002-10-24, 02:33:00,VALID,916.898,VALID,0,VALID,94.849,VALID,-0.101885,VALID,19.7017,VALID,3,VALID,0.272991,
2002-10-24, 02:34:00,VALID,916.899,VALID,0,VALID,95.0041,VALID,0,VALID,19.7032,VALID,3,VALID,0.01875,
2002-10-24, 02:35:00,VALID,916.898,VALID,0,VALID,95.1122,VALID,0,VALID,19.7097,VALID,3,VALID,0.0732686,
2002-10-24, 02:36:00,VALID,916.876,VALID,0,VALID,95.3487,VALID,0.0339617,VALID,19.7355,VALID,274,VALID,0.26727,
2002-10-24, 02:37:00,VALID,916.857,VALID,0,VALID,95.5852,VALID,0.0339617,VALID,19.7452,VALID,263,VALID,0.2384,
2002-10-24, 02:38:00,VALID,916.837,VALID,0,VALID,95.72,VALID,0,VALID,19.7417,VALID,263,VALID,0.0635016,
2002-10-24, 02:39:00,VALID,916.835,VALID,0,VALID,95.7938,VALID,0,VALID,19.742,VALID,264,VALID,0.0460526,
2002-10-24, 02:40:00,VALID,916.803,VALID,0,VALID,95.9413,VALID,0,VALID,19.7584,VALID,265,VALID,0.057492,
2002-10-24, 02:41:00,VALID,916.785,VALID,0,VALID,96.0417,VALID,-0.0169808,VALID,19.771,VALID,277,VALID,0.205181,
2002-10-24, 02:42:00,VALID,916.742,VALID,0,VALID,96.0316,VALID,0,VALID,19.7837,VALID,316,VALID,0.0164696,
2002-10-24, 02:43:00,VALID,916.731,VALID,0,VALID,95.9756,VALID,0,VALID,19.781,VALID,316,VALID,0,
2002-10-24, 02:44:00,VALID,916.703,VALID,0,VALID,95.776,VALID,0,VALID,19.7579,VALID,316,VALID,0,
2002-10-24, 02:45:00,VALID,916.688,VALID,0,VALID,95.7277,VALID,0,VALID,19.7457,VALID,316,VALID,0,
2002-10-24, 02:46:00,VALID,916.674,VALID,0,VALID,95.7302,VALID,0.0169808,VALID,19.7231,VALID,316,VALID,0,
2002-10-24, 02:47:00,VALID,916.649,VALID,0,VALID,95.6819,VALID,0.0339617,VALID,19.7097,VALID,316,VALID,0,
2002-10-24, 02:48:00,VALID,916.628,VALID,0,VALID,95.7811,VALID,0,VALID,19.6871,VALID,316,VALID,0,
2002-10-24, 02:49:00,VALID,916.607,VALID,0,VALID,95.8637,VALID,0.0169808,VALID,19.6702,VALID,316,VALID,0,
2002-10-24, 02:50:00,VALID,916.586,VALID,0,VALID,95.8701,VALID,0.0339617,VALID,19.6744,VALID,316,VALID,0,
2002-10-24, 02:51:00,VALID,916.575,VALID,0,VALID,95.8637,VALID,0.0339617,VALID,19.6545,VALID,316,VALID,0,
2002-10-24, 02:52:00,VALID,916.562,VALID,0,VALID,95.8955,VALID,0.0679233,VALID,19.6545,VALID,354,VALID,0.402845,
2002-10-24, 02:53:00,VALID,916.548,VALID,0,VALID,95.9159,VALID,0.0509425,VALID,19.6284,VALID,359,VALID,0.290296,
2002-10-24, 02:54:00,VALID,916.526,VALID,0,VALID,95.9769,VALID,0.0339617,VALID,19.6324,VALID,359,VALID,0.0230369,
2002-10-24, 02:55:00,VALID,916.52,VALID,0,VALID,95.9642,VALID,0.0509425,VALID,19.62,VALID,359,VALID,0.169202,
2002-10-24, 02:56:00,VALID,916.524,VALID,0,VALID,96.0163,VALID,0.0169808,VALID,19.5904,VALID,359,VALID,0.0933277,
2002-10-24, 02:57:00,VALID,916.506,VALID,0,VALID,96.0354,VALID,0.0169808,VALID,19.5815,VALID,359,VALID,0,
2002-10-24, 02:58:00,VALID,916.497,VALID,0,VALID,95.9998,VALID,0.0169808,VALID,19.5519,VALID,359,VALID,0.0229911,
2002-10-24, 02:59:00,VALID,916.489,VALID,0,VALID,95.9464,VALID,0,VALID,19.5258,VALID,359,VALID,0.128038,
2002-10-24, 03:00:00,VALID,916.48,VALID,0,VALID,95.9566,VALID,0,VALID,19.5196,VALID,359,VALID,0.184896,
2002-10-24, 03:01:00,VALID,916.464,VALID,0,VALID,95.9349,VALID,0.0339617,VALID,19.5,VALID,359,VALID,0.281696,
2002-10-24, 03:02:00,VALID,916.475,VALID,0,VALID,95.9515,VALID,0,VALID,19.5032,VALID,359,VALID,0.0380859,
2002-10-24, 03:03:00,VALID,916.475,VALID,0,VALID,95.9527,VALID,0,VALID,19.4871,VALID,359,VALID,0,
2002-10-24, 03:04:00,VALID,916.517,VALID,0,VALID,95.9553,VALID,-0.0849042,VALID,19.5022,VALID,359,VALID,0,
2002-10-24, 03:05:00,VALID,916.522,VALID,0,VALID,95.9044,VALID,-0.0849042,VALID,19.4955,VALID,359,VALID,0,
2002-10-24, 03:06:00,VALID,916.54,VALID,0,VALID,95.9298,VALID,-0.0849042,VALID,19.4793,VALID,359,VALID,0,
2002-10-24, 03:07:00,VALID,916.562,VALID,0,VALID,95.9858,VALID,-0.0679233,VALID,19.4729,VALID,359,VALID,0,
2002-10-24, 03:08:00,VALID,916.581,VALID,0,VALID,96.0328,VALID,-0.0679233,VALID,19.4659,VALID,359,VALID,0,
2002-10-24, 03:09:00,VALID,916.593,VALID,0,VALID,96.0786,VALID,-0.0509425,VALID,19.4855,VALID,359,VALID,0,
2002-10-24, 03:10:00,VALID,916.602,VALID,0,VALID,96.0481,VALID,-0.101885,VALID,19.4952,VALID,359,VALID,0.0616554,
2002-10-24, 03:11:00,VALID,916.609,VALID,0,VALID,96.0379,VALID,-0.0509425,VALID,19.4918,VALID,359,VALID,0.0818359,
2002-10-24, 03:12:00,VALID,916.611,VALID,0,VALID,95.9972,VALID,-0.0679233,VALID,19.4985,VALID,359,VALID,0.00334821,
2002-10-24, 03:13:00,VALID,916.618,VALID,0,VALID,96.0328,VALID,-0.101885,VALID,19.5049,VALID,359,VALID,0,
2002-10-24, 03:14:00,VALID,916.608,VALID,0,VALID,96.0074,VALID,-0.0339617,VALID,19.5114,VALID,359,VALID,0.0653045,
2002-10-24, 03:15:00,VALID,916.632,VALID,0,VALID,95.9947,VALID,-0.0679233,VALID,19.5116,VALID,359,VALID,0.11875,
2002-10-24, 03:16:00,VALID,916.634,VALID,0,VALID,96.043,VALID,-0.0509425,VALID,19.5047,VALID,359,VALID,0.128516,
2002-10-24, 03:17:00,VALID,916.634,VALID,0,VALID,96.0138,VALID,-0.0339617,VALID,19.4982,VALID,22,VALID,0.418919,
2002-10-24, 03:18:00,VALID,916.625,VALID,0,VALID,95.9947,VALID,-0.0509425,VALID,19.4893,VALID,28,VALID,0.353002,
2002-10-24, 03:19:00,VALID,916.61,VALID,0,VALID,96.0672,VALID,-0.0339617,VALID,19.4694,VALID,28,VALID,0.266572,
2002-10-24, 03:20:00,VALID,916.603,VALID,0,VALID,96.1854,VALID,-0.0679233,VALID,19.4823,VALID,28,VALID,0.328125,
2002-10-24, 03:21:00,VALID,916.603,VALID,0,VALID,96.221,VALID,-0.0849042,VALID,19.4923,VALID,28,VALID,0.0353618,
2002-10-24, 03:22:00,VALID,916.6,VALID,0,VALID,96.2134,VALID,-0.0849042,VALID,19.4923,VALID,28,VALID,0.00120192,
2002-10-24, 03:23:00,VALID,916.588,VALID,0,VALID,96.188,VALID,-0.0509425,VALID,19.4826,VALID,28,VALID,0,
2002-10-24, 03:24:00,VALID,916.578,VALID,0,VALID,96.2376,VALID,-0.0339617,VALID,19.4918,VALID,24,VALID,0.3731,
2002-10-24, 03:25:00,VALID,916.608,VALID,0,VALID,96.2312,VALID,-0.0679233,VALID,19.499,VALID,19,VALID,0.751758,
2002-10-24, 03:26:00,VALID,916.607,VALID,0,VALID,96.2071,VALID,-0.0679233,VALID,19.4888,VALID,22,VALID,0.772768,
2002-10-24, 03:27:00,VALID,916.602,VALID,0,VALID,96.2223,VALID,-0.0339617,VALID,19.4823,VALID,18,VALID,0.947483,
2002-10-24, 03:28:00,VALID,916.633,VALID,0,VALID,96.1753,VALID,-0.0169808,VALID,19.4624,VALID,18,VALID,1.23978,
2002-10-24, 03:29:00,VALID,916.655,VALID,0,VALID,96.1358,VALID,-0.0509425,VALID,19.4595,VALID,11,VALID,1.0654,
2002-10-24, 03:30:00,VALID,916.662,VALID,0,VALID,96.0379,VALID,-0.0509425,VALID,19.4401,VALID,6,VALID,0.987891,
2002-10-24, 03:31:00,VALID,916.665,VALID,0,VALID,96.0227,VALID,-0.0679233,VALID,19.4339,VALID,13,VALID,0.701436,
2002-10-24, 03:32:00,VALID,916.689,VALID,0,VALID,95.9998,VALID,-0.0679233,VALID,19.4306,VALID,15,VALID,0.529605,
2002-10-24, 03:33:00,VALID,916.664,VALID,0,VALID,95.9833,VALID,-0.0679233,VALID,19.4373,VALID,13,VALID,0.380208,
2002-10-24, 03:34:00,VALID,916.639,VALID,0,VALID,95.9807,VALID,0.0339617,VALID,19.4324,VALID,13,VALID,0.153245,
2002-10-24, 03:35:00,VALID,916.626,VALID,0,VALID,95.9642,VALID,0.0169808,VALID,19.4456,VALID,13,VALID,0.00123355,
2002-10-24, 03:36:00,VALID,916.612,VALID,0,VALID,95.8917,VALID,0,VALID,19.4359,VALID,13,VALID,0.245593,
2002-10-24, 03:37:00,VALID,916.594,VALID,0,VALID,95.9248,VALID,0.0509425,VALID,19.4259,VALID,23,VALID,0.604235,